{"data":{"norad_id":53049,"epoch":"2026-05-25T01:11:17.795328Z","epoch_age_seconds":79491,"freshness":"FRESH","line1":"1 53049U 22077G   26145.04951152 -.00001193  00000+0 -78593-4 0  9995","line2":"2 53049  97.4483 324.9674 0001575  88.6370 271.5037 15.05657665212391","mean_motion":15.05657665,"eccentricity":0.0001575,"inclination_deg":97.4483,"raan_deg":324.9674,"arg_perigee_deg":88.637,"mean_anomaly_deg":271.5037,"bstar":-7.8593e-5,"rev_number":21239,"period_min":95.639270032873,"perigee_km":548.39654163008,"apogee_km":550.57874339247,"semimajor_km":6927.6246425113,"source":"CELESTRAK","updated_at":"2026-05-25T13:38:17.286689Z"}}